User: anonymous   Login
Location: Unspecified
(0.0000°N, 0.0000°E)
Time: 01:58:56
(UTC+00:00)
Language:

AO-73 - Orbit

View from above orbital plane
View from above orbital plane
View from above satellite
View from above satellite

Ground track
Ground track

The orbit data is extracted from the following two-line orbital elements,

1 39444U 13066AE  18016.63154018 +.00000254 +00000-0 +37974-4 0  9999
2 39444 097.6063 054.5562 0056924 287.8483 071.6527 14.81622862222622
Epoch (UTC): 16 January 2018 15:09:25
Eccentricity: 0.0056924
inclination: 97.6063°
perigee height: 584 km
apogee height: 664 km
right ascension of ascending node: 54.5562°
argument of perigee: 287.8483°
revolutions per day: 14.81622862
mean anomaly at epoch: 71.6527°
orbit number at epoch: 22262

The dashed part of the orbit path shows where the satellite is in the earth's shadow,  

DLR